Back to catalog

STARLINK-35038

AliveCommunicationsVLEO
NORAD 65482·PAYLOAD·🇺🇸 United States

Launched Sep 3, 2025 from Cape Canaveral Space Force Station

Loading…

Next Passes (next 24 hours)

TLE

FreshSource: CelesTrak SupGP

Epoch: Sep 14, 2026, 14:47 UTC

1 65482C 25195AA  26257.61645833 -.00000010  00000+0 -30813-6 0  2575
2 65482  53.1581  96.9033 0001239  98.2035 183.0129 15.34403425    18

Track STARLINK-35038 in real time with AllMySat

Download on the App Store